ALA727 UWLL-UGTB

Flight info

Callsign ALA727
Flight time N/A
Altitude 36000
Route K0857F360 NEPNI1L NEPNI T789 DAFOS P135 UROBO R807 NIRGA A835 GUSLI/N0447F360 M54 LAGAS LAGAS1B
Aircraft A320/M-SDE3FGHIRWY/LB1

Departure

Time 2026-04-30 19:47
Airport Ulyanovsk Baratayevka Airport (UWLL)

Arrival

Time N/A
Airport Tbilisi International Airport (UGTB)
Time Latitude Longitude Altitude Speed Heading
2026-04-30 19:03 54.28623 48.23215 372 ft 0 kts 122°
2026-04-30 19:31 54.28576 48.23260 369 ft 5 kts 203°
2026-04-30 19:31 54.28527 48.23238 372 ft 6 kts 154°
2026-04-30 19:31 54.28483 48.23358 374 ft 4 kts 119°
2026-04-30 19:32 54.28477 48.23375 375 ft 0 kts 119°
2026-04-30 19:32 54.28457 48.23435 376 ft 12 kts 120°
2026-04-30 19:32 54.28406 48.23575 383 ft 11 kts 122°
2026-04-30 19:32 54.28378 48.23651 386 ft 5 kts 123°
2026-04-30 19:33 54.28367 48.23681 387 ft 3 kts 122°
2026-04-30 19:33 54.28331 48.23778 389 ft 14 kts 122°
2026-04-30 19:33 54.28285 48.23905 392 ft 14 kts 123°
2026-04-30 19:33 54.28218 48.24089 388 ft 19 kts 122°
2026-04-30 19:34 54.28145 48.24193 387 ft 13 kts 181°
2026-04-30 19:34 54.28076 48.24132 388 ft 10 kts 213°
2026-04-30 19:34 54.27842 48.23955 392 ft 27 kts 161°
2026-04-30 19:35 54.27731 48.23847 396 ft 33 kts 271°
2026-04-30 19:35 54.27606 48.23632 402 ft 26 kts 216°
2026-04-30 19:35 54.27461 48.23472 409 ft 23 kts 211°
2026-04-30 19:35 54.27325 48.23324 413 ft 24 kts 212°
2026-04-30 19:36 54.27160 48.23148 415 ft 32 kts 212°
2026-04-30 19:36 54.26984 48.22962 419 ft 28 kts 213°
2026-04-30 19:36 54.26665 48.22616 436 ft 30 kts 212°
2026-04-30 19:37 54.26476 48.22414 435 ft 30 kts 212°
2026-04-30 19:37 54.26381 48.22293 441 ft 10 kts 239°
2026-04-30 19:37 54.26373 48.22207 439 ft 6 kts 272°
2026-04-30 19:37 54.26375 48.22135 431 ft 5 kts 272°
2026-04-30 19:38 54.26375 48.22124 443 ft 0 kts 272°
2026-04-30 19:45 54.26376 48.22089 439 ft 8 kts 272°
2026-04-30 19:45 54.26379 48.21970 443 ft 11 kts 276°
2026-04-30 19:45 54.26454 48.21956 428 ft 16 kts 33°
2026-04-30 19:45 54.26544 48.22056 436 ft 15 kts 32°
2026-04-30 19:46 54.26637 48.22154 430 ft 19 kts 31°
2026-04-30 19:46 54.26797 48.22326 431 ft 52 kts 32°
2026-04-30 19:46 54.27354 48.22918 411 ft 133 kts 32°
2026-04-30 19:46 54.28305 48.23937 561 ft 178 kts 32°
2026-04-30 19:47 54.29338 48.25052 1511 ft 173 kts 33°
2026-04-30 19:47 54.30008 48.25773 2011 ft 171 kts 33°
2026-04-30 19:47 54.31411 48.27279 2597 ft 187 kts 33°
2026-04-30 19:47 54.32558 48.28417 3094 ft 197 kts 22°
2026-04-30 19:48 54.33976 48.28375 3401 ft 220 kts 338°
2026-04-30 19:48 54.35137 48.26518 3774 ft 241 kts 296°
2026-04-30 19:48 54.35350 48.23677 4441 ft 247 kts 256°
2026-04-30 19:48 54.34497 48.21173 5158 ft 248 kts 219°
2026-04-30 19:49 54.32947 48.19685 5678 ft 263 kts 199°
2026-04-30 19:49 54.29388 48.17835 7346 ft 267 kts 197°
2026-04-30 19:49 54.27634 48.16866 8201 ft 268 kts 199°
2026-04-30 19:50 54.25885 48.15761 9094 ft 268 kts 201°
2026-04-30 19:50 54.24161 48.14555 9942 ft 268 kts 203°
2026-04-30 19:50 54.22433 48.13269 10536 ft 279 kts 204°
2026-04-30 19:50 54.20597 48.11857 10730 ft 301 kts 204°
2026-04-30 19:51 54.18624 48.10317 11011 ft 319 kts 205°
2026-04-30 19:51 54.16584 48.08712 11616 ft 325 kts 205°
2026-04-30 19:51 54.14518 48.07086 12292 ft 329 kts 205°
2026-04-30 19:51 54.12422 48.05442 12979 ft 333 kts 205°
2026-04-30 19:52 54.10306 48.03785 13640 ft 337 kts 204°
2026-04-30 19:52 54.08167 48.02113 14263 ft 340 kts 204°
2026-04-30 19:52 54.05941 48.00718 14907 ft 342 kts 195°
2026-04-30 19:52 54.03636 47.99669 15566 ft 343 kts 195°
2026-04-30 19:53 54.01330 47.98619 16216 ft 344 kts 195°
2026-04-30 19:53 53.99014 47.97560 16876 ft 345 kts 195°
2026-04-30 19:53 53.96693 47.96496 17528 ft 347 kts 195°
2026-04-30 19:53 53.94359 47.95430 18163 ft 348 kts 195°
2026-04-30 19:54 53.92772 47.94707 18563 ft 349 kts 195°
2026-04-30 19:54 53.90418 47.93636 19107 ft 351 kts 195°
2026-04-30 19:54 53.88086 47.92579 19645 ft 353 kts 194°
2026-04-30 19:54 53.85701 47.91498 20184 ft 355 kts 194°
2026-04-30 19:55 53.83277 47.90396 20741 ft 357 kts 195°
2026-04-30 19:55 53.80904 47.89316 21270 ft 359 kts 195°
2026-04-30 19:55 53.78486 47.88214 21791 ft 361 kts 195°
2026-04-30 19:55 53.76062 47.87111 22282 ft 362 kts 194°
2026-04-30 19:56 53.73617 47.86005 22773 ft 364 kts 194°
2026-04-30 19:56 53.71161 47.84899 23251 ft 366 kts 194°
2026-04-30 19:56 53.68740 47.83525 23693 ft 369 kts 200°
2026-04-30 19:56 53.66344 47.81936 24048 ft 371 kts 200°
2026-04-30 19:57 53.63930 47.80329 24396 ft 373 kts 200°
2026-04-30 19:57 53.61506 47.78719 24733 ft 376 kts 201°
2026-04-30 19:57 53.59069 47.77102 25062 ft 378 kts 201°
2026-04-30 19:57 53.56614 47.75473 25391 ft 381 kts 201°
2026-04-30 19:58 53.54143 47.73835 25712 ft 383 kts 201°
2026-04-30 19:58 53.51654 47.72188 26026 ft 385 kts 201°
2026-04-30 19:58 53.49151 47.70536 26332 ft 388 kts 201°
2026-04-30 19:58 53.46692 47.68643 26633 ft 391 kts 207°
2026-04-30 19:59 53.44288 47.66461 26934 ft 393 kts 207°
2026-04-30 19:59 53.41871 47.64274 27225 ft 395 kts 207°
2026-04-30 19:59 53.36998 47.59882 27777 ft 400 kts 207°
2026-04-30 20:00 53.34531 47.57667 28040 ft 403 kts 207°
2026-04-30 20:00 53.32058 47.55445 28303 ft 405 kts 207°
2026-04-30 20:00 53.29601 47.53238 28548 ft 407 kts 207°
2026-04-30 20:00 53.27063 47.50963 28790 ft 410 kts 207°
2026-04-30 20:01 53.22035 47.46471 29220 ft 415 kts 207°
2026-04-30 20:01 53.19472 47.44189 29404 ft 418 kts 207°
2026-04-30 20:01 53.16899 47.41896 29598 ft 421 kts 207°
2026-04-30 20:02 53.11706 47.37260 29980 ft 425 kts 207°
2026-04-30 20:02 53.09098 47.34937 30226 ft 426 kts 207°
2026-04-30 20:03 53.03851 47.30291 30628 ft 428 kts 207°
2026-04-30 20:03 53.01216 47.27963 30842 ft 429 kts 207°
2026-04-30 20:03 52.98580 47.25635 31063 ft 429 kts 207°
2026-04-30 20:03 52.95945 47.23309 31300 ft 429 kts 208°
2026-04-30 20:04 52.93306 47.20983 31538 ft 429 kts 208°
2026-04-30 20:04 52.90668 47.18668 31784 ft 429 kts 208°
2026-04-30 20:04 52.88029 47.16349 32038 ft 429 kts 208°
2026-04-30 20:05 52.82762 47.11740 32551 ft 428 kts 208°
2026-04-30 20:05 52.80132 47.09449 32810 ft 427 kts 208°
2026-04-30 20:05 52.74884 47.04860 33329 ft 426 kts 208°
2026-04-30 20:06 52.72268 47.02575 33600 ft 425 kts 208°
2026-04-30 20:06 52.69658 47.00300 33869 ft 424 kts 208°
2026-04-30 20:06 52.67042 46.98029 34096 ft 424 kts 208°
2026-04-30 20:06 52.64433 46.95772 34273 ft 425 kts 208°
2026-04-30 20:07 52.61814 46.93509 34428 ft 426 kts 208°
2026-04-30 20:07 52.59183 46.91234 34585 ft 427 kts 208°
2026-04-30 20:07 52.53913 46.86685 34881 ft 429 kts 208°
2026-04-30 20:08 52.51297 46.84437 35028 ft 430 kts 208°
2026-04-30 20:08 52.48647 46.82163 35176 ft 431 kts 208°
2026-04-30 20:08 52.45985 46.79880 35322 ft 432 kts 208°
2026-04-30 20:08 52.43319 46.77592 35468 ft 432 kts 208°
2026-04-30 20:09 52.40654 46.75308 35609 ft 433 kts 208°
2026-04-30 20:09 52.37977 46.73015 35747 ft 434 kts 208°
2026-04-30 20:09 52.32622 46.68436 36011 ft 435 kts 208°
2026-04-30 20:10 52.24549 46.61570 36038 ft 437 kts 208°
2026-04-30 20:11 52.16458 46.54717 36044 ft 437 kts 208°
2026-04-30 20:11 52.11061 46.50149 36058 ft 437 kts 208°
2026-04-30 20:12 52.02945 46.43325 36044 ft 438 kts 208°
2026-04-30 20:13 51.97537 46.38799 36055 ft 438 kts 208°
2026-04-30 20:13 51.92123 46.34271 36050 ft 438 kts 208°
2026-04-30 20:14 51.86707 46.29762 36061 ft 438 kts 208°
2026-04-30 20:14 51.81292 46.25266 36059 ft 437 kts 208°
2026-04-30 20:15 51.75883 46.20779 36055 ft 437 kts 208°
2026-04-30 20:15 51.70466 46.16300 36061 ft 437 kts 208°
2026-04-30 20:16 51.65049 46.11833 36061 ft 437 kts 209°
2026-04-30 20:16 51.59646 46.07377 36066 ft 437 kts 209°
2026-04-30 20:17 51.54223 46.02952 36066 ft 437 kts 208°
2026-04-30 20:17 51.48734 45.98755 36065 ft 437 kts 207°
2026-04-30 20:18 51.43221 45.94643 36079 ft 437 kts 207°
2026-04-30 20:18 51.39576 45.91905 36083 ft 436 kts 207°